星链-34849(STARLINK-34849)

导读

STARLINK-34849是美国太空探索技术公司SpaceX于2025年10月16日发射的星链(Starlink)系列卫星。星链项目旨在构建全球覆盖的近地轨道卫星互联网,为全球提供高速低时延宽带接入服务。作为Starlink星座组网的组成部分,该卫星部署于近地轨道,助力进一步扩展星链全球网络覆盖与服务能力,截至2026年3月,SpaceX已累计发射超万颗星链卫星。

基本信息
目录编号:
66005
目录名称:
STARLINK-34849
国际标识:
2025-232A
轨道中心:
EARTH
卫星名称:
星链-34849
卫星全名:
星链-34849(STARLINK-34849)
卫星状态:
在轨 (已飞行323 天)
发射日期:
2025-10-16 UTC
国别 :
美国 (US)
星等 :
--
轨道信息
数据来源 国际轨道数据
星历时间: 2026-09-04T03:47:06+0800
11小时前
查看轨道信息
半长轴: 6840.822km
偏心率: 0.0001188
轨道倾角: 53.162°
近地点辐角 75.739°
升交点赤经 353.318°
平近点角 284.375°
近地点: 461.872km
远地点: 463.498km
周期: 93.847分钟
每日圈数: 15.344062
详细信息
固有亮度:
5
最大亮度:
2.5
卫星平台:
Starlink V1.0
覆盖范围:
全球
运营商:
太空探索技术公司
运营商所在国:
美国
制造商(研发单位):
太空探索技术公司
制造商所在国:
美国
使用方式:
暂无
卫星简介
Starlink 计划是 SpaceX 推出的全球卫星互联网项目,通过发射低轨道卫星,为全球尤其是偏远地区提供高速、低延迟的互联网服务。自 2019 年起,Starlink 已部署数千颗卫星,旨在缩小全球数字鸿沟,推动互联网普及。该项目还为军事、航空等行业提供通信支持,带来广泛经济效益。
2D轨道图
3D轨道图
轨道高度分析图
轨道倾角分析图
轨道综合分析图
查看轨道综合分析图
交会数据列表
事件ID 空间交会对象 最接近时刻(TCA) 交会距离 交会风险概率(CRP) 交会风险指数(CRI) 操作
CDM_260905-134804-944206-600521
2026-09-05T
13:48:14+0000
1.974 km
极远距离
2.409362E-6 低风险 0.43
CDM_260827-202005-703806-600522
2026-08-27T
20:20:05+0000
1.952 km
极远距离
1.885175E-6 低风险 0.41
CDM_260905-021105-360006-600521
2026-09-05T
02:11:45+0000
2.340 km
极远距离
1.760909E-6 低风险 0.4